Location: Davayat
(45.9471°N, 3.1105°E)
Time: 22:37:46
(UTC+00:00)

Meteor 2-12 Rocket - Pass Details

Date: 25 April 2021
Orbit: 935 x 958 km, 82.5° (Epoch: 16 May)

Event Time Altitude Azimuth Distance (km) Brightness Sun altitude
Rises 21:41:31 0° 4° (N) 3,628 8.3 -24.3°
Reaches altitude 10° 21:45:19 10° 27° (NNE) 2,673 7.2 -24.7°
Maximum altitude 21:48:40 15° 61° (ENE) 2,320 6.4 -25.0°
Enters shadow 21:50:04 14° 76° (ENE) 2,380 6.4 -25.1°
